FW8448 Weather Reports


Display with metric or nautical units.
time (UTC)temp
F
wind
direction
speed
MPH
gust
MPH
rain 1hr
in
rain 24hr
in
rain mn
in
humidity
%
barometer
mb
20260502190054 51 9 1.0 7.0 0.00 0.00 0.00 60 1017.8
20260502184553 51 93 1.0 7.0 0.00 0.00 0.00 62 1018.0
20260502183057 53 352 2.0 7.0 0.00 0.00 0.00 64 1018.2
20260502181614 51 5 1.0 5.0 0.00 0.00 0.00 58 1018.2
20260502163051 49 341 3.0 8.0 0.00 0.00 0.00 59 1018.7
20260502161557 49 325 2.0 5.0 0.00 0.00 0.00 61 1018.8
20260502151604 48 236 2.0 5.0 0.00 0.00 0.00 58 1018.8
20260502123054 40 352 1.0 5.0 0.00 0.06 0.00 75 1018.3
20260502121554 39 5 1.0 4.0 0.00 0.06 0.00 78 1018.1
20260502114556 36 0 0.0 2.0 0.00 0.10 0.00 89 1017.9
20260502113052 34 180 0.0 2.0 0.00 0.10 0.00 92 1017.9
20260502111551 33 0 0.0 1.0 0.00 0.10 0.00 94 1017.8
20260502110057 33 0 0.0 2.0 0.00 0.10 0.00 94 1017.5
20260502104549 33 0 0.0 1.0 0.00 0.14 0.00 95 1017.7
20260502103053 33 0 0.0 0.0 0.00 0.14 0.00 95 1017.9
20260502101550 33 0 0.0 0.0 0.00 0.14 0.00 95 1017.7
20260502080104 34 0 0.0 0.0 0.00 0.14 0.00 94 1017.6
20260502070049 34 0 0.0 0.0 0.00 0.14 0.00 94 1017.6
20260502064559 34 0 0.0 0.0 0.00 0.14 0.00 94 1017.5
20260502063051 34 0 0.0 0.0 0.00 0.14 0.00 94 1017.7
20260502061550 35 0 0.0 0.0 0.00 0.14 0.00 94 1017.6
20260502060051 35 0 0.0 0.0 0.00 0.14 0.00 94 1017.6
20260502054557 35 0 0.0 0.0 0.00 0.14 0.00 94 1017.7
20260502053048 35 0 0.0 0.0 0.00 0.14 0.00 94 1017.8
20260502051548 35 0 0.0 0.0 0.00 0.14 0.00 94 1017.9
20260502050056 35 0 0.0 0.0 0.00 0.14 0.00 94 1017.7
20260502044552 36 0 0.0 0.0 0.00 0.14 0.00 93 1018.0
20260502043055 36 0 0.0 0.0 0.00 0.14 0.00 93 1018.0
20260502041554 36 0 0.0 0.0 0.00 0.14 0.00 94 1017.6
20260502040107 37 0 0.0 0.0 0.00 0.14 0.00 93 1017.8
20260502034556 37 0 0.0 0.0 0.00 0.14 0.14 93 1017.7
20260502033053 37 0 0.0 0.0 0.00 0.14 0.14 93 1017.6
20260502031624 37 0 0.0 1.0 0.00 0.14 0.14 93 1017.8
20260502030100 38 0 0.0 0.0 0.00 0.14 0.14 92 1017.9
20260502024551 38 0 0.0 0.0 0.00 0.14 0.14 92 1017.9
20260502023053 39 0 0.0 0.0 0.00 0.14 0.14 92 1017.6
20260502021552 39 0 0.0 0.0 0.00 0.14 0.14 91 1017.3
20260502020107 39 0 0.0 0.0 0.00 0.14 0.14 90 1017.1
20260502014555 40 0 0.0 0.0 0.00 0.14 0.14 89 1016.8
20260502013051 41 0 0.0 0.0 0.00 0.14 0.14 88 1016.5
20260502011556 42 0 0.0 1.0 0.00 0.14 0.14 87 1016.2
20260502010054 43 0 0.0 0.0 0.00 0.14 0.14 84 1016.1
20260502004558 45 0 0.0 1.0 0.00 0.14 0.14 80 1015.9
20260502003107 46 0 0.0 2.0 0.00 0.14 0.14 78 1015.6
20260502001626 47 183 0.0 3.0 0.00 0.14 0.14 77 1015.5
20260502000050 48 277 0.0 4.0 0.00 0.14 0.14 80 1015.6
20260501234551 48 278 3.0 6.0 0.00 0.14 0.14 78 1015.6
20260501233047 47 292 5.0 8.0 0.00 0.14 0.14 83 1015.6
20260501231553 46 271 7.0 16.0 0.00 0.14 0.14 79 1015.7
20260501230048 50 269 0.0 3.0 0.00 0.14 0.14 70 1015.6
20260501224559 50 273 2.0 13.0 0.00 0.14 0.14 66 1015.5
20260501223050 52 292 1.0 7.0 0.00 0.14 0.14 67 1015.4
20260501221551 52 0 0.0 6.0 0.00 0.14 0.14 68 1015.3
20260501220051 53 338 0.0 3.0 0.00 0.14 0.14 69 1015.3
20260501214548 54 306 0.0 4.0 0.00 0.14 0.14 66 1015.4
20260501213057 53 0 1.0 5.0 0.00 0.14 0.14 69 1015.5
20260501211551 52 0 0.0 9.0 0.00 0.14 0.14 67 1015.4
20260501210057 53 267 1.0 6.0 0.00 0.14 0.14 69 1015.2
20260501204550 51 257 1.0 7.0 0.00 0.14 0.14 69 1015.5
20260501203055 52 289 1.0 5.0 0.00 0.14 0.14 68 1015.5
20260501201556 52 0 0.0 7.0 0.00 0.14 0.14 71 1015.8
20260501200053 52 0 0.0 3.0 0.00 0.14 0.14 72 1015.8
20260501194557 51 277 0.0 5.0 0.00 0.14 0.14 71 1015.7
20260501193055 51 288 0.0 4.0 0.00 0.14 0.14 74 1015.4
20260501191601 50 274 2.0 8.0 0.00 0.14 0.14 72 1015.4